Home   Weather   Odesa   Past weeks

Flag for Ukraine Past Weather in Odesa, Ukraine — Yesterday and Last 2 Weeks

Now
32 °F

Clear.


Feels Like: 26 °F
Forecast: 31 / 39 °F
Wind: 6 mph from West

Location: Odesa Airport

Current Time: Feb 25, 2017 at 8:26:51 pm

Latest Report: Feb 25, 2017 at 8:00 pm


Visibility: 10 mi

Pressure: 30.18 "Hg

Humidity: 80%

Dew Point: 27 °F

Location of OdesaLocation

Past Weather in Odesa — Graph

°F

Odesa Temperature Yesterday

Maximum temperature yesterday: 61 °F (at 2:00 pm)
Minimum temperature yesterday: 36 °F (at 2:00 am)
Average temperature yesterday: 47 °F

High & Low Weather Summary for the Past Weeks

 TemperatureHumidityPressure
High61 °F (Feb 24, 2:00 pm)100% (Feb 11, 6:30 am)30.69 "Hg (Feb 11, 6:30 am)
Low14 °F (Feb 11, 2:30 am)48% (Feb 16, 12:30 pm)29.62 "Hg (Feb 23, 5:00 am)
Average34 °F84%30.19 "Hg
* Reported Feb 10 7:00 pm — Feb 25 7:00 pm, Odesa, Weather by CustomWeather, © 2017

Note: Actual official high and low records may vary slightly from our data, if they occured in-between our weather recording intervals... More about our weather records

Advertising

Odesa Weather History for the Previous 24 Hours

Scroll right to see more
 ConditionsComfort  
Time TempWeatherWind HumidityBarometerVisibility
7:00 pm
Sat, Feb 25
34 °FClear.6 mph81%30.15 "Hg10 mi
6:30 pm34 °FClear.6 mph81%30.12 "Hg10 mi
6:00 pm36 °FClear.6 mph75%30.09 "Hg10 mi
5:30 pm37 °FScattered clouds.8 mph70%30.09 "HgN/A
5:00 pm39 °FPartly sunny.13 mph61%30.07 "HgN/A
4:30 pm39 °FBroken clouds.13 mph65%30.07 "HgN/A
4:00 pm39 °FBroken clouds.13 mph65%30.04 "HgN/A
3:30 pm39 °FBroken clouds.13 mph75%30.04 "HgN/A
3:00 pm39 °FBroken clouds.10 mph81%30.01 "HgN/A
2:30 pm37 °FBroken clouds.13 mph81%30.01 "HgN/A
2:00 pm37 °FMore clouds than sun.13 mph87%30.01 "HgN/A
1:30 pm36 °FMore clouds than sun.15 mph93%30.01 "HgN/A
1:00 pm36 °FMore clouds than sun.15 mph93%29.98 "HgN/A
12:30 pm36 °FSprinkles. More clouds than sun.13 mph93%29.98 "HgN/A
12:00 pm36 °FSprinkles. Partly sunny.15 mph100%29.98 "Hg4 mi
11:30 am34 °FSprinkles. Fog.15 mph100%29.98 "Hg3 mi
11:13 am34 °FSprinkles. Partly sunny.13 mph100%29.95 "Hg4 mi
11:00 am34 °FSprinkles. Fog.13 mph100%29.95 "Hg2 mi
10:41 am34 °FSnow flurries. Fog.13 mph100%29.95 "Hg2 mi
10:00 am34 °FSprinkles. Partly sunny.17 mph100%29.95 "Hg4 mi
9:30 am36 °FSprinkles. Partly sunny.17 mph93%29.92 "Hg4 mi
9:21 am36 °FSprinkles. Partly sunny.17 mph100%29.92 "Hg4 mi
9:00 am37 °FSprinkles. Partly sunny.20 mph87%29.89 "Hg4 mi
8:30 am41 °FSprinkles. More clouds than sun.22 mph70%29.89 "HgN/A
8:00 am43 °FPartly sunny.17 mph71%29.86 "HgN/A
7:30 am43 °FSprinkles. Partly sunny.15 mph71%29.86 "HgN/A
7:00 am45 °FPartly sunny.10 mph71%29.83 "HgN/A
6:32 am41 °FSprinkles. Passing clouds.6 mph93%29.80 "HgN/A
6:00 am41 °FClear.6 mph93%29.83 "Hg10 mi
5:30 am41 °FClear.6 mph93%29.80 "Hg10 mi
5:00 am39 °FClear.3 mph100%29.77 "Hg4 mi
4:30 am41 °FClear.No wind93%29.74 "Hg4 mi
4:00 am41 °FClear.No wind93%29.74 "Hg10 mi
3:30 am41 °FClear.No wind93%29.74 "Hg5 mi
3:00 am41 °FClear.3 mph93%29.74 "Hg10 mi
2:30 am41 °FClear.6 mph93%29.74 "Hg10 mi
2:00 am43 °FClear.6 mph87%29.74 "Hg10 mi
1:30 am45 °FClear.3 mph87%29.74 "Hg10 mi
1:00 am45 °FClear.6 mph87%29.74 "Hg10 mi
12:30 am46 °FClear.8 mph82%29.74 "Hg10 mi
12:00 am45 °FClear.6 mph87%29.71 "Hg10 mi
11:30 pm
Fri, Feb 24
46 °FClear.8 mph82%29.71 "Hg10 mi
11:00 pm46 °FClear.6 mph87%29.71 "Hg10 mi
10:30 pm46 °FClear.3 mph87%29.71 "Hg10 mi
10:00 pm46 °FClear.6 mph87%29.71 "Hg10 mi
9:30 pm48 °FClear.6 mph82%29.71 "Hg10 mi
9:00 pm50 °FClear.6 mph76%29.71 "Hg10 mi
8:30 pm50 °FClear.8 mph82%29.68 "Hg10 mi
8:00 pm48 °FClear.8 mph87%29.68 "Hg10 mi
Weather by CustomWeather, © 2017

See weather overviewHow to use our weather pages